| time (UTC) | temp C | wind direction | speed KPH | gust KPH | rain 1hr cm | rain 24hr cm | rain mn cm | humidity % | barometer mb |
| 20260503172507 | 25 | 254 | 3.2 | 8.0 | 0.00 | 0.00 | 0.00 | 46 | 1022.1 |
| 20260503172007 | 25 | 214 | 3.2 | 11.3 | 0.00 | 0.00 | 0.00 | 47 | 1022.2 |
| 20260503171508 | 25 | 182 | 3.2 | 6.4 | 0.00 | 0.00 | 0.00 | 48 | 1022.3 |
| 20260503171008 | 25 | 196 | 3.2 | 8.0 | 0.00 | 0.00 | 0.00 | 48 | 1022.5 |
| 20260503151008 | 20 | 244 | 0.0 | 4.8 | 0.00 | 0.00 | 0.00 | 68 | 1022.8 |
| 20260503150505 | 20 | 188 | 0.0 | 0.0 | 0.00 | 0.00 | 0.00 | 72 | 1022.8 |
| 20260503131006 | 9 | 5 | 0.0 | 0.0 | 0.00 | 0.00 | 0.00 | 94 | 1022.7 |
| 20260503130505 | 9 | 5 | 0.0 | 0.0 | 0.00 | 0.00 | 0.00 | 93 | 1022.6 |
| 20260503110506 | 7 | 5 | 0.0 | 0.0 | 0.00 | 0.00 | 0.00 | 91 | 1021.2 |
| 20260503090506 | 8 | 5 | 0.0 | 0.0 | 0.00 | 0.00 | 0.00 | 90 | 1020.9 |
| 20260503081005 | 9 | 5 | 0.0 | 0.0 | 0.00 | 0.00 | 0.00 | 90 | 1020.5 |
| 20260503080505 | 9 | 5 | 0.0 | 0.0 | 0.00 | 0.00 | 0.00 | 90 | 1020.4 |
| 20260503072506 | 9 | 5 | 0.0 | 0.0 | 0.00 | 0.00 | 0.00 | 89 | 1020.3 |
| 20260503072005 | 9 | 5 | 0.0 | 0.0 | 0.00 | 0.00 | 0.00 | 89 | 1020.2 |
| 20260503071507 | 9 | 5 | 0.0 | 0.0 | 0.00 | 0.00 | 0.00 | 89 | 1020.1 |
| 20260503070505 | 10 | 5 | 0.0 | 0.0 | 0.00 | 0.00 | 0.00 | 89 | 1020.1 |
| 20260503055008 | 10 | 5 | 0.0 | 0.0 | 0.00 | 0.00 | 0.00 | 88 | 1020.5 |
| 20260503054009 | 10 | 5 | 0.0 | 0.0 | 0.00 | 0.00 | 0.00 | 89 | 1020.6 |
| 20260503053507 | 10 | 5 | 0.0 | 0.0 | 0.00 | 0.00 | 0.00 | 89 | 1020.3 |
| 20260503053009 | 10 | 5 | 0.0 | 0.0 | 0.00 | 0.00 | 0.00 | 88 | 1020.4 |
| 20260503052508 | 10 | 5 | 0.0 | 0.0 | 0.00 | 0.00 | 0.00 | 88 | 1020.4 |
| 20260503052010 | 10 | 5 | 0.0 | 0.0 | 0.00 | 0.00 | 0.00 | 88 | 1020.4 |
| 20260503051510 | 11 | 5 | 0.0 | 0.0 | 0.00 | 0.00 | 0.00 | 88 | 1020.4 |
| 20260503051010 | 11 | 5 | 0.0 | 0.0 | 0.00 | 0.00 | 0.00 | 88 | 1020.5 |
| 20260503050507 | 11 | 5 | 0.0 | 0.0 | 0.00 | 0.00 | 0.00 | 88 | 1020.4 |
| 20260503050020 | 11 | 5 | 0.0 | 0.0 | 0.00 | 0.00 | 0.00 | 88 | 1020.4 |
| 20260503045506 | 11 | 5 | 0.0 | 0.0 | 0.00 | 0.05 | 0.00 | 88 | 1020.5 |
| 20260503045007 | 11 | 5 | 0.0 | 0.0 | 0.00 | 0.05 | 0.00 | 88 | 1020.4 |
| 20260503044507 | 11 | 5 | 0.0 | 0.0 | 0.00 | 0.05 | 0.00 | 88 | 1020.5 |
| 20260503044007 | 11 | 5 | 0.0 | 0.0 | 0.00 | 0.05 | 0.00 | 88 | 1020.4 |
| 20260503043506 | 11 | 5 | 0.0 | 0.0 | 0.00 | 0.05 | 0.00 | 88 | 1020.3 |
| 20260503042506 | 11 | 5 | 0.0 | 0.0 | 0.00 | 0.05 | 0.00 | 88 | 1020.5 |
| 20260503042008 | 11 | 5 | 0.0 | 0.0 | 0.00 | 0.05 | 0.00 | 88 | 1020.4 |
| 20260503041507 | 11 | 5 | 0.0 | 0.0 | 0.00 | 0.05 | 0.00 | 88 | 1020.3 |
| 20260503041007 | 11 | 5 | 0.0 | 0.0 | 0.00 | 0.05 | 0.00 | 88 | 1020.3 |
| 20260503040506 | 11 | 5 | 0.0 | 0.0 | 0.00 | 0.05 | 0.00 | 88 | 1020.3 |
| 20260503035007 | 11 | 5 | 0.0 | 0.0 | 0.00 | 0.15 | 0.00 | 87 | 1020.3 |
| 20260503034507 | 11 | 5 | 0.0 | 0.0 | 0.00 | 0.15 | 0.00 | 87 | 1020.3 |
| 20260503034007 | 11 | 5 | 0.0 | 0.0 | 0.00 | 0.15 | 0.00 | 86 | 1020.2 |
| 20260503033506 | 12 | 5 | 0.0 | 0.0 | 0.00 | 0.15 | 0.00 | 86 | 1020.3 |
| 20260503033008 | 12 | 5 | 0.0 | 0.0 | 0.00 | 0.15 | 0.00 | 85 | 1020.2 |
| 20260503032506 | 12 | 5 | 0.0 | 0.0 | 0.00 | 0.15 | 0.00 | 85 | 1020.3 |
| 20260503032007 | 12 | 5 | 0.0 | 0.0 | 0.00 | 0.15 | 0.00 | 84 | 1020.2 |
| 20260503031506 | 12 | 5 | 0.0 | 0.0 | 0.00 | 0.15 | 0.00 | 84 | 1020.3 |
| 20260503031007 | 12 | 5 | 0.0 | 0.0 | 0.00 | 0.15 | 0.00 | 84 | 1020.3 |
| 20260503030506 | 12 | 5 | 0.0 | 0.0 | 0.00 | 0.15 | 0.00 | 84 | 1020.3 |
| 20260503025506 | 13 | 5 | 0.0 | 0.0 | 0.00 | 0.20 | 0.00 | 83 | 1020.0 |
| 20260503025011 | 13 | 5 | 0.0 | 0.0 | 0.00 | 0.20 | 0.00 | 83 | 1020.0 |
| 20260503024506 | 13 | 5 | 0.0 | 0.0 | 0.00 | 0.20 | 0.00 | 82 | 1019.9 |
| 20260503024007 | 13 | 5 | 0.0 | 0.0 | 0.00 | 0.20 | 0.00 | 82 | 1019.9 |
| 20260503023506 | 13 | 5 | 0.0 | 0.0 | 0.00 | 0.20 | 0.00 | 82 | 1019.9 |
| 20260503023007 | 13 | 5 | 0.0 | 0.0 | 0.00 | 0.20 | 0.00 | 81 | 1019.8 |
| 20260503022506 | 13 | 5 | 0.0 | 0.0 | 0.00 | 0.20 | 0.00 | 81 | 1019.7 |
| 20260503022007 | 13 | 5 | 0.0 | 0.0 | 0.00 | 0.20 | 0.00 | 80 | 1019.6 |
| 20260503021506 | 14 | 5 | 0.0 | 0.0 | 0.00 | 0.20 | 0.00 | 79 | 1019.6 |
| 20260503021007 | 14 | 5 | 0.0 | 0.0 | 0.00 | 0.20 | 0.00 | 79 | 1019.5 |
| 20260503020507 | 14 | 5 | 0.0 | 0.0 | 0.00 | 0.20 | 0.00 | 79 | 1019.5 |
| 20260503020008 | 15 | 5 | 0.0 | 0.0 | 0.00 | 0.23 | 0.00 | 78 | 1019.3 |
| 20260503015505 | 15 | 5 | 0.0 | 0.0 | 0.00 | 0.23 | 0.00 | 78 | 1019.3 |
| 20260503014507 | 15 | 5 | 0.0 | 0.0 | 0.00 | 0.23 | 0.00 | 76 | 1019.3 |
| 20260503014007 | 15 | 5 | 0.0 | 0.0 | 0.00 | 0.23 | 0.00 | 76 | 1019.1 |
| 20260503013506 | 15 | 5 | 0.0 | 0.0 | 0.00 | 0.23 | 0.00 | 75 | 1019.0 |
| 20260503013007 | 16 | 5 | 0.0 | 0.0 | 0.00 | 0.23 | 0.00 | 75 | 1019.1 |
| 20260503012506 | 16 | 5 | 0.0 | 0.0 | 0.00 | 0.23 | 0.00 | 74 | 1019.0 |
| 20260503011507 | 16 | 5 | 0.0 | 0.0 | 0.00 | 0.23 | 0.00 | 72 | 1019.0 |
| 20260503011006 | 16 | 5 | 0.0 | 0.0 | 0.00 | 0.23 | 0.00 | 72 | 1018.9 |
| 20260503010505 | 17 | 5 | 0.0 | 0.0 | 0.00 | 0.23 | 0.00 | 70 | 1018.9 |
| 20260503010006 | 17 | 5 | 0.0 | 0.0 | 0.00 | 0.30 | 0.00 | 69 | 1018.8 |
| 20260503005506 | 17 | 5 | 0.0 | 0.0 | 0.00 | 0.30 | 0.00 | 69 | 1018.7 |
| 20260503005007 | 17 | 5 | 0.0 | 0.0 | 0.00 | 0.30 | 0.00 | 66 | 1018.6 |
| 20260503004507 | 17 | 5 | 0.0 | 0.0 | 0.00 | 0.30 | 0.00 | 66 | 1018.7 |
| 20260503003507 | 18 | 5 | 0.0 | 0.0 | 0.00 | 0.30 | 0.00 | 67 | 1018.6 |
| 20260503003008 | 18 | 5 | 0.0 | 0.0 | 0.00 | 0.30 | 0.00 | 65 | 1018.5 |
| 20260503002506 | 18 | 5 | 0.0 | 0.0 | 0.00 | 0.30 | 0.00 | 65 | 1018.6 |
| 20260503002008 | 18 | 5 | 0.0 | 0.0 | 0.00 | 0.30 | 0.00 | 63 | 1018.7 |
| 20260503001507 | 19 | 5 | 0.0 | 0.0 | 0.00 | 0.30 | 0.00 | 63 | 1018.7 |
| 20260503001008 | 19 | 5 | 0.0 | 0.0 | 0.00 | 0.30 | 0.00 | 59 | 1018.7 |
| 20260503000507 | 19 | 5 | 0.0 | 0.0 | 0.00 | 0.30 | 0.00 | 55 | 1018.6 |
| 20260503000010 | 19 | 5 | 0.0 | 0.0 | 0.00 | 0.30 | 0.00 | 58 | 1018.6 |
| 20260502235006 | 20 | 5 | 0.0 | 0.0 | 0.00 | 0.69 | 0.00 | 54 | 1018.5 |
| 20260502234506 | 20 | 315 | 0.0 | 0.0 | 0.00 | 0.69 | 0.00 | 53 | 1018.4 |
| 20260502234008 | 20 | 315 | 0.0 | 0.0 | 0.00 | 0.69 | 0.00 | 56 | 1018.5 |
| 20260502233506 | 20 | 315 | 0.0 | 0.0 | 0.00 | 0.69 | 0.00 | 53 | 1018.5 |
| 20260502233009 | 20 | 315 | 0.0 | 0.0 | 0.00 | 0.69 | 0.00 | 53 | 1018.4 |
| 20260502232505 | 20 | 349 | 0.0 | 0.0 | 0.00 | 0.69 | 0.00 | 51 | 1018.3 |
| 20260502232007 | 20 | 351 | 1.6 | 3.2 | 0.00 | 0.69 | 0.00 | 50 | 1018.2 |
| 20260502231507 | 20 | 25 | 1.6 | 4.8 | 0.00 | 0.69 | 0.00 | 50 | 1018.2 |
| 20260502231006 | 20 | 28 | 0.0 | 4.8 | 0.00 | 0.69 | 0.00 | 49 | 1018.3 |
| 20260502230009 | 21 | 17 | 1.6 | 4.8 | 0.00 | 0.69 | 0.00 | 49 | 1018.1 |
| 20260502225506 | 21 | 360 | 3.2 | 6.4 | 0.00 | 0.91 | 0.00 | 49 | 1018.1 |
| 20260502225007 | 21 | 24 | 1.6 | 6.4 | 0.00 | 0.91 | 0.00 | 47 | 1018.1 |
| 20260502224507 | 21 | 21 | 0.0 | 6.4 | 0.00 | 0.91 | 0.00 | 47 | 1018.0 |
| 20260502223505 | 21 | 355 | 1.6 | 4.8 | 0.00 | 0.91 | 0.00 | 49 | 1017.9 |
| 20260502222506 | 21 | 30 | 3.2 | 8.0 | 0.00 | 0.91 | 0.00 | 46 | 1018.0 |
| 20260502222007 | 21 | 19 | 3.2 | 6.4 | 0.00 | 0.91 | 0.00 | 46 | 1018.0 |
| 20260502221507 | 21 | 15 | 1.6 | 6.4 | 0.00 | 0.91 | 0.00 | 46 | 1017.9 |
| 20260502221008 | 21 | 26 | 1.6 | 6.4 | 0.00 | 0.91 | 0.00 | 46 | 1017.9 |
| 20260502220505 | 21 | 16 | 1.6 | 6.4 | 0.00 | 0.91 | 0.00 | 45 | 1017.9 |
| 20260502220009 | 21 | 360 | 1.6 | 4.8 | 0.00 | 0.91 | 0.00 | 45 | 1017.9 |
| 20260502215507 | 21 | 5 | 1.6 | 4.8 | 0.00 | 0.94 | 0.00 | 44 | 1017.9 |
| 20260502215007 | 22 | 335 | 1.6 | 4.8 | 0.00 | 0.94 | 0.00 | 46 | 1017.8 |
| 20260502214506 | 22 | 5 | 1.6 | 4.8 | 0.00 | 0.94 | 0.00 | 47 | 1017.9 |
| 20260502213506 | 22 | 84 | 1.6 | 6.4 | 0.00 | 0.94 | 0.00 | 46 | 1017.7 |
| 20260502213008 | 22 | 347 | 1.6 | 9.7 | 0.00 | 0.94 | 0.00 | 45 | 1017.9 |
| 20260502212508 | 22 | 16 | 1.6 | 9.7 | 0.00 | 0.94 | 0.00 | 46 | 1017.9 |
| 20260502212007 | 22 | 11 | 1.6 | 4.8 | 0.00 | 0.94 | 0.00 | 44 | 1017.8 |
| 20260502211507 | 22 | 360 | 1.6 | 4.8 | 0.00 | 0.94 | 0.00 | 44 | 1017.9 |
| 20260502211007 | 22 | 13 | 1.6 | 4.8 | 0.00 | 0.94 | 0.00 | 46 | 1018.0 |
| 20260502210505 | 22 | 30 | 1.6 | 4.8 | 0.00 | 0.94 | 0.00 | 45 | 1018.0 |
| 20260502210008 | 22 | 12 | 1.6 | 6.4 | 0.00 | 1.02 | 0.00 | 44 | 1018.1 |
| 20260502205006 | 22 | 5 | 1.6 | 6.4 | 0.00 | 1.02 | 0.00 | 45 | 1018.3 |
| 20260502204006 | 23 | 336 | 3.2 | 6.4 | 0.00 | 1.02 | 0.00 | 43 | 1018.4 |
| 20260502203504 | 23 | 23 | 3.2 | 8.0 | 0.00 | 1.02 | 0.00 | 46 | 1018.5 |
| 20260502203009 | 23 | 26 | 3.2 | 8.0 | 0.00 | 1.02 | 0.00 | 44 | 1018.5 |
| 20260502202506 | 23 | 279 | 1.6 | 6.4 | 0.00 | 1.02 | 0.00 | 44 | 1018.5 |
| 20260502202008 | 23 | 112 | 1.6 | 4.8 | 0.00 | 1.02 | 0.00 | 46 | 1018.5 |
| 20260502201506 | 23 | 82 | 1.6 | 6.4 | 0.00 | 1.02 | 0.00 | 45 | 1018.6 |
| 20260502201006 | 23 | 13 | 1.6 | 6.4 | 0.00 | 1.02 | 0.00 | 47 | 1018.8 |
| 20260502200505 | 23 | 39 | 3.2 | 6.4 | 0.00 | 1.02 | 0.00 | 45 | 1018.6 |
| 20260502200010 | 23 | 54 | 3.2 | 8.0 | 0.00 | 1.02 | 0.00 | 46 | 1018.7 |
| 20260502195505 | 23 | 12 | 1.6 | 8.0 | 0.00 | 1.22 | 0.00 | 46 | 1018.7 |
| 20260502195010 | 23 | 307 | 1.6 | 4.8 | 0.00 | 1.22 | 0.00 | 47 | 1018.7 |
| 20260502194007 | 23 | 57 | 3.2 | 8.0 | 0.00 | 1.22 | 0.00 | 46 | 1019.0 |
| 20260502193507 | 23 | 60 | 3.2 | 8.0 | 0.00 | 1.22 | 0.00 | 47 | 1019.0 |
| 20260502193007 | 23 | 9 | 3.2 | 6.4 | 0.00 | 1.22 | 0.00 | 50 | 1019.2 |
| 20260502191508 | 23 | 23 | 3.2 | 9.7 | 0.00 | 1.22 | 0.00 | 46 | 1019.3 |
| 20260502191006 | 22 | 5 | 3.2 | 9.7 | 0.00 | 1.22 | 0.00 | 49 | 1019.4 |
| 20260502190508 | 22 | 355 | 3.2 | 9.7 | 0.00 | 1.22 | 0.00 | 47 | 1019.5 |
| 20260502185507 | 22 | 84 | 1.6 | 8.0 | 0.00 | 1.32 | 0.00 | 48 | 1019.3 |
| 20260502185008 | 22 | 46 | 1.6 | 8.0 | 0.00 | 1.32 | 0.00 | 48 | 1019.4 |
| 20260502184507 | 22 | 67 | 1.6 | 6.4 | 0.00 | 1.32 | 0.00 | 47 | 1019.5 |
| 20260502184007 | 22 | 30 | 3.2 | 9.7 | 0.00 | 1.32 | 0.00 | 50 | 1019.6 |
| 20260502183505 | 22 | 66 | 3.2 | 9.7 | 0.00 | 1.32 | 0.00 | 46 | 1019.6 |
| 20260502183008 | 22 | 11 | 3.2 | 6.4 | 0.00 | 1.32 | 0.00 | 52 | 1019.6 |
| 20260502182507 | 22 | 25 | 3.2 | 6.4 | 0.00 | 1.32 | 0.00 | 48 | 1019.6 |
| 20260502182007 | 22 | 123 | 3.2 | 6.4 | 0.00 | 1.32 | 0.00 | 51 | 1019.7 |
| 20260502181507 | 22 | 327 | 3.2 | 4.8 | 0.00 | 1.32 | 0.00 | 51 | 1019.7 |
| 20260502181008 | 22 | 45 | 3.2 | 6.4 | 0.00 | 1.32 | 0.00 | 48 | 1019.8 |
| 20260502180507 | 22 | 38 | 3.2 | 6.4 | 0.00 | 1.32 | 0.00 | 50 | 1019.9 |